This demonstration page uses our WeatherBlox Daily Observations layout. Learn more.

Left ArrowRight Arrow

Hourly Observations for March 1, 2015

Temp ( °F °C ) Dew Point ( °F °C ) Humidity (%) Winds ( mph kmh ) Pressure ( in mb ) Visibility ( mi km ) Precip ( " mm )
12:53 am 00:53 Clear 53 11.7 25 -3.9 34 34 N 14 22 29.99 1016 10 16 0.00 0.00
1:53 am 01:53 Clear 52 11.1 25 -3.9 35 35 N 14 22 30.00 1016 10 16 0.00 0.00
2:53 am 02:53 Clear 51 10.6 26 -3.3 38 38 N 17 28 29.98 1015 10 16 0.00 0.00
3:53 am 03:53 Clear 51 10.6 25 -3.9 36 36 N 18 30 29.98 1015 10 16 0.00 0.00
4:53 am 04:53 Clear 51 10.6 25 -3.9 36 36 N 16 26 29.99 1016 10 16 0.00 0.00
5:53 am 05:53 Clear 50 10 25 -3.9 38 38 N 16 26 30.01 1016 10 16 0.00 0.00
6:53 am 06:53 Sunny 50 10 24 -4.4 36 36 N 17 28 30.01 1016 10 16 0.00 0.00
7:53 am 07:53 Sunny 51 10.6 25 -3.9 36 36 N 17 28 30.04 1017 10 16 0.00 0.00
8:53 am 08:53 Sunny 54 12.2 25 -3.9 33 33 N 15 24 30.05 1018 10 16 0.00 0.00
9:53 am 09:53 Sunny 56 13.3 25 -3.9 30 30 N 16 26 30.04 1017 10 16 0.00 0.00
10:53 am 10:53 Sunny 61 16 28 -2 29 29 N 17 28 30.00 1016 10 16 0.00 0.00
11:53 am 11:53 Sunny 62 16.7 28 -2.2 28 28 N 13 20 30.01 1016 10 16 0.00 0.00
12:53 pm 12:53 Sunny 64 17.8 28 -2.2 26 26 NNW 12 19 29.96 1015 10 16 0.00 0.00
1:53 pm 13:53 Sunny 66 18.9 29 -1.7 25 25 NNW 9 15 29.93 1014 10 16 0.00 0.00
2:53 pm 14:53 Sunny 68 20 29 -1.7 23 23 VRB 6 9 29.91 1013 10 16 0.00 0.00
3:53 pm 15:53 Partly Cloudy 63 17 34 1 34 34 NNE 16 26 29.80 1009 10 16 0.00 0.00
4:53 pm 16:53 Sunny 67 19.4 29 -1.7 24 24 N 10 17 29.88 1012 10 16 0.00 0.00
5:53 pm 17:53 Sunny 65 18.3 28 -2.2 25 25 NNW 3 6 29.87 1011 10 16 0.00 0.00
6:53 pm 18:53 Clear 56 13.3 30 -1.1 37 37 WNW 5 7 29.87 1012 10 16 0.00 0.00
7:53 pm 19:53 Clear 55 12.8 30 -1.1 38 38 WNW 6 9 29.87 1011 10 16 0.00 0.00
8:53 pm 20:53 Clear 53 11.7 31 -0.6 43 43 N 6 9 29.86 1011 10 16 0.00 0.00
9:53 pm 21:53 Clear 49 9.4 32 0 52 52 Calm 29.87 1011 10 16 0.00 0.00
10:53 pm 22:53 Clear 48 8.9 33 0.6 56 56 Calm 29.86 1011 10 16 0.00 0.00
11:53 pm 23:53 Clear 45 7.2 34 1.1 66 66 Calm 29.83 1010 10 16 0.00 0.00

Powered by AerisWeather